Year,Month,Day,Hour,Minute,Value (Times are PST for temperature in C)
2011,04,28,00,00,2.20
2011,04,28,00,01,2.20
2011,04,28,00,02,2.30
2011,04,28,00,03,2.30
2011,04,28,00,04,2.50
2011,04,28,00,05,2.70
2011,04,28,00,06,2.90
2011,04,28,00,07,3.20
2011,04,28,00,08,3.40
2011,04,28,00,09,3.70
2011,04,28,00,10,3.90
2011,04,28,00,11,4.00
2011,04,28,00,12,4.20
2011,04,28,00,13,4.30
2011,04,28,00,14,4.40
2011,04,28,00,15,4.40
2011,04,28,00,16,4.50
2011,04,28,00,17,4.50
2011,04,28,00,18,4.60
2011,04,28,00,19,4.60
2011,04,28,00,20,4.60
2011,04,28,00,21,4.70
2011,04,28,00,22,4.70
2011,04,28,00,23,4.70
2011,04,28,00,24,4.70
2011,04,28,00,25,4.70
2011,04,28,00,26,4.70
2011,04,28,00,27,4.70
2011,04,28,00,28,4.70
2011,04,28,00,29,4.70
2011,04,28,00,30,4.70
2011,04,28,00,31,4.70
2011,04,28,00,32,4.70
2011,04,28,00,33,4.60
2011,04,28,00,34,4.50
2011,04,28,00,35,4.50
2011,04,28,00,36,4.50
2011,04,28,00,37,4.40
2011,04,28,00,38,4.40
2011,04,28,00,39,4.40
2011,04,28,00,40,4.40
2011,04,28,00,41,4.50
2011,04,28,00,42,4.50
2011,04,28,00,43,4.60
2011,04,28,00,44,4.60
2011,04,28,00,45,4.60
2011,04,28,00,46,4.60
2011,04,28,00,47,4.60
2011,04,28,00,48,4.60
2011,04,28,00,49,4.60
2011,04,28,00,50,4.60
2011,04,28,00,51,4.60
2011,04,28,00,52,4.50
2011,04,28,00,53,4.50
2011,04,28,00,54,4.50
2011,04,28,00,55,4.50
2011,04,28,00,56,4.50
2011,04,28,00,57,4.40
2011,04,28,00,58,4.40
2011,04,28,00,59,4.40
2011,04,28,01,00,4.40
2011,04,28,01,01,4.40
2011,04,28,01,02,4.40
2011,04,28,01,03,4.40
2011,04,28,01,04,4.40
2011,04,28,01,05,4.40
2011,04,28,01,06,4.50
2011,04,28,01,07,4.50
2011,04,28,01,08,4.50
2011,04,28,01,09,4.50
2011,04,28,01,10,4.50
2011,04,28,01,11,4.50
2011,04,28,01,12,4.50
2011,04,28,01,13,4.50
2011,04,28,01,14,4.40
2011,04,28,01,15,4.40
2011,04,28,01,16,4.40
2011,04,28,01,17,4.40
2011,04,28,01,18,4.30
2011,04,28,01,19,4.30
2011,04,28,01,20,4.30
2011,04,28,01,21,4.30
2011,04,28,01,22,4.30
2011,04,28,01,23,4.30
2011,04,28,01,24,4.30
2011,04,28,01,25,4.30
2011,04,28,01,26,4.30
2011,04,28,01,27,4.30
2011,04,28,01,28,4.30
2011,04,28,01,29,4.30
2011,04,28,01,30,4.30
2011,04,28,01,31,4.30
2011,04,28,01,32,4.30
2011,04,28,01,33,4.30
2011,04,28,01,34,4.30
2011,04,28,01,35,4.30
2011,04,28,01,36,4.30
2011,04,28,01,37,4.30
2011,04,28,01,38,4.30
2011,04,28,01,39,4.30
2011,04,28,01,40,4.30
2011,04,28,01,41,4.30
2011,04,28,01,42,4.30
2011,04,28,01,43,4.30
2011,04,28,01,44,4.30
2011,04,28,01,45,4.30
2011,04,28,01,46,4.30
2011,04,28,01,47,4.30
2011,04,28,01,48,4.30
2011,04,28,01,49,4.30
2011,04,28,01,50,4.30
2011,04,28,01,51,4.30
2011,04,28,01,52,4.30
2011,04,28,01,53,4.20
2011,04,28,01,54,4.20
2011,04,28,01,55,4.20
2011,04,28,01,56,4.20
2011,04,28,01,57,4.20
2011,04,28,01,58,4.10
2011,04,28,01,59,4.10
2011,04,28,02,00,4.10
2011,04,28,02,01,4.10
2011,04,28,02,02,4.00
2011,04,28,02,03,4.00
2011,04,28,02,04,3.90
2011,04,28,02,05,3.90
2011,04,28,02,06,3.90
2011,04,28,02,07,3.90
2011,04,28,02,08,3.80
2011,04,28,02,09,3.80
2011,04,28,02,10,3.80
2011,04,28,02,11,3.80
2011,04,28,02,12,3.80
2011,04,28,02,13,3.80
2011,04,28,02,14,3.80
2011,04,28,02,15,3.70
2011,04,28,02,16,3.70
2011,04,28,02,17,3.70
2011,04,28,02,18,3.70
2011,04,28,02,19,3.70
2011,04,28,02,20,3.70
2011,04,28,02,21,3.70
2011,04,28,02,22,3.70
2011,04,28,02,23,3.70
2011,04,28,02,24,3.70
2011,04,28,02,25,3.70
2011,04,28,02,26,3.70
2011,04,28,02,27,3.70
2011,04,28,02,28,3.70
2011,04,28,02,29,3.70
2011,04,28,02,30,3.70
2011,04,28,02,31,3.70
2011,04,28,02,32,3.70
2011,04,28,02,33,3.70
2011,04,28,02,34,3.70
2011,04,28,02,35,3.70
2011,04,28,02,36,3.70
2011,04,28,02,37,3.70
2011,04,28,02,38,3.70
2011,04,28,02,39,3.70
2011,04,28,02,40,3.70
2011,04,28,02,41,3.70
2011,04,28,02,42,3.70
2011,04,28,02,43,3.70
2011,04,28,02,44,3.70
2011,04,28,02,45,3.70
2011,04,28,02,46,3.60
2011,04,28,02,47,3.60
2011,04,28,02,48,3.60
2011,04,28,02,49,3.50
2011,04,28,02,50,3.50
2011,04,28,02,51,3.50
2011,04,28,02,52,3.40
2011,04,28,02,53,3.40
2011,04,28,02,54,3.40
2011,04,28,02,55,3.30
2011,04,28,02,56,3.30
2011,04,28,02,57,3.30
2011,04,28,02,58,3.30
2011,04,28,02,59,3.20
2011,04,28,03,00,3.20
2011,04,28,03,01,3.20
2011,04,28,03,02,3.20
2011,04,28,03,06,3.10
2011,04,28,03,07,3.10
2011,04,28,03,08,3.10
2011,04,28,03,09,3.10
2011,04,28,03,10,3.10
2011,04,28,03,11,3.10
2011,04,28,03,12,3.10
2011,04,28,03,13,3.10
2011,04,28,03,14,3.10
2011,04,28,03,15,3.10
2011,04,28,03,16,3.10
2011,04,28,03,17,3.20
2011,04,28,03,18,3.20
2011,04,28,03,19,3.20
2011,04,28,03,20,3.20
2011,04,28,03,21,3.20
2011,04,28,03,22,3.20
2011,04,28,03,23,3.30
2011,04,28,03,24,3.30
2011,04,28,03,25,3.30
2011,04,28,03,26,3.30
2011,04,28,03,27,3.30
2011,04,28,03,28,3.30
2011,04,28,03,29,3.30
2011,04,28,03,30,3.30
2011,04,28,03,31,3.40
2011,04,28,03,32,3.40
2011,04,28,03,33,3.40
2011,04,28,03,34,3.40
2011,04,28,03,35,3.40
2011,04,28,03,36,3.40
2011,04,28,03,37,3.40
2011,04,28,03,38,3.40
2011,04,28,03,39,3.40
2011,04,28,03,40,3.40
2011,04,28,03,41,3.40
2011,04,28,03,42,3.40
2011,04,28,03,43,3.30
2011,04,28,03,44,3.40
2011,04,28,03,45,3.40
2011,04,28,03,46,3.40
2011,04,28,03,47,3.40
2011,04,28,03,48,3.40
2011,04,28,03,49,3.40
2011,04,28,03,50,3.40
2011,04,28,03,51,3.50
2011,04,28,03,52,3.50
2011,04,28,03,53,3.50
2011,04,28,03,54,3.50
2011,04,28,03,55,3.50
2011,04,28,03,56,3.50
2011,04,28,03,57,3.50
2011,04,28,03,58,3.50
2011,04,28,03,59,3.50
2011,04,28,04,00,3.40
2011,04,28,04,01,3.40
2011,04,28,04,02,3.40
2011,04,28,04,03,3.40
2011,04,28,04,04,3.30
2011,04,28,04,05,3.30
2011,04,28,04,06,3.30
2011,04,28,04,07,3.20
2011,04,28,04,08,3.20
2011,04,28,04,09,3.10
2011,04,28,04,10,3.10
2011,04,28,04,11,3.00
2011,04,28,04,12,3.00
2011,04,28,04,13,2.90
2011,04,28,04,14,2.90
2011,04,28,04,15,2.90
2011,04,28,04,16,2.80
2011,04,28,04,17,2.80
2011,04,28,04,18,2.80
2011,04,28,04,19,2.80
2011,04,28,04,20,2.80
2011,04,28,04,21,2.80
2011,04,28,04,22,2.80
2011,04,28,04,23,2.70
2011,04,28,04,24,2.70
2011,04,28,04,25,2.80
2011,04,28,04,26,2.90
2011,04,28,04,27,3.00
2011,04,28,04,28,3.00
2011,04,28,04,29,3.00
2011,04,28,04,30,3.10
2011,04,28,04,31,3.10
2011,04,28,04,32,3.10
2011,04,28,04,33,3.20
2011,04,28,04,34,3.20
2011,04,28,04,35,3.10
2011,04,28,04,36,3.10
2011,04,28,04,37,3.10
2011,04,28,04,38,3.10
2011,04,28,04,39,3.00
2011,04,28,04,40,3.00
2011,04,28,04,41,2.90
2011,04,28,04,42,2.90
2011,04,28,04,43,2.80
2011,04,28,04,44,2.80
2011,04,28,04,45,2.80
2011,04,28,04,46,2.80
2011,04,28,04,47,2.80
2011,04,28,04,48,2.80
2011,04,28,04,49,2.80
2011,04,28,04,50,2.80
2011,04,28,04,51,2.80
2011,04,28,04,52,2.70
2011,04,28,04,53,2.80
2011,04,28,04,54,2.80
2011,04,28,04,55,2.80
2011,04,28,04,56,2.90
2011,04,28,04,57,2.90
2011,04,28,04,58,2.90
2011,04,28,04,59,3.00
2011,04,28,05,00,3.00
2011,04,28,05,01,3.10
2011,04,28,05,02,3.10
2011,04,28,05,03,3.20
2011,04,28,05,04,3.20
2011,04,28,05,05,3.20
2011,04,28,05,06,3.20
2011,04,28,05,07,3.20
2011,04,28,05,08,3.20
2011,04,28,05,09,3.20
2011,04,28,05,10,3.20
2011,04,28,05,11,3.20
2011,04,28,05,12,3.10
2011,04,28,05,13,3.10
2011,04,28,05,14,3.10
2011,04,28,05,15,3.10
2011,04,28,05,16,3.10
2011,04,28,05,17,3.10
2011,04,28,05,18,3.10
2011,04,28,05,19,3.10
2011,04,28,05,20,3.10
2011,04,28,05,21,3.10
2011,04,28,05,22,3.10
2011,04,28,05,23,3.10
2011,04,28,05,24,3.10
2011,04,28,05,25,3.10
2011,04,28,05,26,3.10
2011,04,28,05,27,3.00
2011,04,28,05,28,3.00
2011,04,28,05,29,3.00
2011,04,28,05,30,2.90
2011,04,28,05,31,2.90
2011,04,28,05,32,2.90
2011,04,28,05,33,2.80
2011,04,28,05,34,2.80
2011,04,28,05,35,2.80
2011,04,28,05,36,2.70
2011,04,28,05,37,2.70
2011,04,28,05,38,2.70
2011,04,28,05,39,2.70
2011,04,28,05,40,2.70
2011,04,28,05,41,2.70
2011,04,28,05,42,2.70
2011,04,28,05,43,2.70
2011,04,28,05,44,2.60
2011,04,28,05,45,2.60
2011,04,28,05,46,2.60
2011,04,28,05,47,2.60
2011,04,28,05,48,2.60
2011,04,28,05,49,2.60
2011,04,28,05,50,2.60
2011,04,28,05,51,2.60
2011,04,28,05,52,2.60
2011,04,28,05,53,2.60
2011,04,28,05,54,2.60
2011,04,28,05,55,2.60
2011,04,28,05,56,2.60
2011,04,28,05,57,2.60
2011,04,28,05,58,2.60
2011,04,28,05,59,2.60
2011,04,28,06,00,2.70
2011,04,28,06,01,2.70
2011,04,28,06,02,2.70
2011,04,28,06,03,2.70
2011,04,28,06,04,2.70
2011,04,28,06,05,2.70
2011,04,28,06,06,2.70
2011,04,28,06,07,2.70
2011,04,28,06,08,2.70
2011,04,28,06,09,2.70
2011,04,28,06,10,2.70
2011,04,28,06,11,2.70
2011,04,28,06,12,2.70
2011,04,28,06,13,2.70
2011,04,28,06,14,2.70
2011,04,28,06,15,2.70
2011,04,28,06,16,2.70
2011,04,28,06,17,2.70
2011,04,28,06,18,2.70
2011,04,28,06,19,2.70
2011,04,28,06,20,2.70
2011,04,28,06,21,2.60
2011,04,28,06,22,2.60
2011,04,28,06,23,2.60
2011,04,28,06,24,2.60
2011,04,28,06,25,2.60
2011,04,28,06,26,2.60
2011,04,28,06,27,2.70
2011,04,28,06,28,2.70
2011,04,28,06,29,2.70
2011,04,28,06,30,2.70
2011,04,28,06,31,2.70
2011,04,28,06,32,2.70
2011,04,28,06,33,2.70
2011,04,28,06,34,2.70
2011,04,28,06,35,2.70
2011,04,28,06,36,2.70
2011,04,28,06,37,2.70
2011,04,28,06,38,2.70
2011,04,28,06,39,2.70
2011,04,28,06,40,2.70
2011,04,28,06,41,2.70
2011,04,28,06,42,2.70
2011,04,28,06,43,2.70
2011,04,28,06,44,2.70
2011,04,28,06,45,2.70
2011,04,28,06,46,2.70
2011,04,28,06,47,2.70
2011,04,28,06,48,2.70
2011,04,28,06,49,2.70
2011,04,28,06,50,2.70
2011,04,28,06,51,2.70
2011,04,28,06,52,2.80
2011,04,28,06,53,2.80
2011,04,28,06,54,2.80
2011,04,28,06,55,2.80
2011,04,28,06,56,2.80
2011,04,28,06,57,2.80
2011,04,28,06,58,2.80
2011,04,28,06,59,2.80
2011,04,28,07,00,2.80
2011,04,28,07,01,2.80
2011,04,28,07,02,2.90
2011,04,28,07,03,2.90
2011,04,28,07,04,2.90
2011,04,28,07,05,2.90
2011,04,28,07,06,2.90
2011,04,28,07,07,3.00
2011,04,28,07,08,3.00
2011,04,28,07,09,3.00
2011,04,28,07,10,3.10
2011,04,28,07,11,3.10
2011,04,28,07,12,3.10
2011,04,28,07,13,3.10
2011,04,28,07,14,3.10
2011,04,28,07,15,3.10
2011,04,28,07,16,3.10
2011,04,28,07,17,3.20
2011,04,28,07,18,3.20
2011,04,28,07,19,3.20
2011,04,28,07,20,3.20
2011,04,28,07,21,3.20
2011,04,28,07,22,3.20
2011,04,28,07,23,3.30
2011,04,28,07,24,3.30
2011,04,28,07,25,3.30
2011,04,28,07,26,3.30
2011,04,28,07,27,3.40
2011,04,28,07,28,3.40
2011,04,28,07,29,3.40
2011,04,28,07,30,3.40
2011,04,28,07,31,3.40
2011,04,28,07,32,3.40
2011,04,28,07,33,3.50
2011,04,28,07,34,3.50
2011,04,28,07,35,3.50
2011,04,28,07,36,3.50
2011,04,28,07,37,3.50
2011,04,28,07,38,3.50
2011,04,28,07,39,3.50
2011,04,28,07,40,3.50
2011,04,28,07,41,3.50
2011,04,28,07,42,3.50
2011,04,28,07,43,3.60
2011,04,28,07,44,3.60
2011,04,28,07,45,3.60
2011,04,28,07,46,3.70
2011,04,28,07,47,3.70
2011,04,28,07,48,3.70
2011,04,28,07,49,3.80
2011,04,28,07,50,3.80
2011,04,28,07,51,3.80
2011,04,28,07,52,3.90
2011,04,28,07,53,3.90
2011,04,28,07,54,3.90
2011,04,28,07,55,4.00
2011,04,28,07,56,4.00
2011,04,28,07,57,4.10
2011,04,28,07,58,4.10
2011,04,28,07,59,4.10
2011,04,28,08,00,4.10
2011,04,28,08,01,4.10
2011,04,28,08,02,4.20
2011,04,28,08,03,4.20
2011,04,28,08,04,4.20
2011,04,28,08,05,4.30
2011,04,28,08,06,4.30
2011,04,28,08,07,4.30
2011,04,28,08,08,4.30
2011,04,28,08,09,4.30
2011,04,28,08,10,4.30
2011,04,28,08,11,4.30
2011,04,28,08,12,4.40
2011,04,28,08,13,4.40
2011,04,28,08,14,4.40
2011,04,28,08,15,4.40
2011,04,28,08,16,4.40
2011,04,28,08,17,4.40
2011,04,28,08,18,4.50
2011,04,28,08,19,4.50
2011,04,28,08,20,4.60
2011,04,28,08,21,4.60
2011,04,28,08,22,4.60
2011,04,28,08,23,4.60
2011,04,28,08,24,4.70
2011,04,28,08,25,4.70
2011,04,28,08,26,4.70
2011,04,28,08,27,4.70
2011,04,28,08,28,4.70
2011,04,28,08,29,4.70
2011,04,28,08,30,4.70
2011,04,28,08,31,4.80
2011,04,28,08,32,4.80
2011,04,28,08,33,4.80
2011,04,28,08,34,4.80
2011,04,28,08,35,4.80
2011,04,28,08,36,4.80
2011,04,28,08,37,4.90
2011,04,28,08,38,4.90
2011,04,28,08,39,5.00
2011,04,28,08,40,5.00
2011,04,28,08,41,5.10
2011,04,28,08,42,5.10
2011,04,28,08,43,5.20
2011,04,28,08,44,5.30
2011,04,28,08,45,5.40
2011,04,28,08,46,5.40
2011,04,28,08,47,5.50
2011,04,28,08,48,5.60
2011,04,28,08,49,5.60
2011,04,28,08,50,5.70
2011,04,28,08,51,5.70
2011,04,28,08,52,5.80
2011,04,28,08,53,5.80
2011,04,28,08,54,5.80
2011,04,28,08,55,5.90
2011,04,28,08,56,5.90
2011,04,28,08,57,5.90
2011,04,28,08,58,5.90
2011,04,28,08,59,6.00
2011,04,28,09,00,6.00
2011,04,28,09,01,6.00
2011,04,28,09,02,6.10
2011,04,28,09,03,6.10
2011,04,28,09,04,6.20
2011,04,28,09,05,6.30
2011,04,28,09,06,6.30
2011,04,28,09,07,6.40
2011,04,28,09,08,6.40
2011,04,28,09,09,6.40
2011,04,28,09,10,6.50
2011,04,28,09,11,6.50
2011,04,28,09,12,6.50
2011,04,28,09,13,6.50
2011,04,28,09,14,6.60
2011,04,28,09,15,6.60
2011,04,28,09,16,6.70
2011,04,28,09,17,6.70
2011,04,28,09,18,6.80
2011,04,28,09,19,6.80
2011,04,28,09,20,6.90
2011,04,28,09,21,7.00
2011,04,28,09,22,7.00
2011,04,28,09,23,7.10
2011,04,28,09,24,7.20
2011,04,28,09,25,7.20
2011,04,28,09,26,7.30
2011,04,28,09,27,7.40
2011,04,28,09,28,7.40
2011,04,28,09,29,7.50
2011,04,28,09,30,7.60
2011,04,28,09,31,7.70
2011,04,28,09,32,7.80
2011,04,28,09,33,8.00
2011,04,28,09,34,8.00
2011,04,28,09,35,8.10
2011,04,28,09,36,8.10
2011,04,28,09,37,8.10
2011,04,28,09,38,8.10
2011,04,28,09,39,8.10
2011,04,28,09,40,8.10
2011,04,28,09,41,8.10
2011,04,28,09,42,8.10
2011,04,28,09,43,8.00
2011,04,28,09,44,8.00
2011,04,28,09,45,7.90
2011,04,28,09,46,7.80
2011,04,28,09,47,7.80
2011,04,28,09,48,7.80
2011,04,28,09,49,7.80
2011,04,28,09,50,7.80
2011,04,28,09,51,7.80
2011,04,28,09,52,7.90
2011,04,28,09,53,8.00
2011,04,28,09,54,8.10
2011,04,28,09,55,8.20
2011,04,28,09,56,8.20
2011,04,28,09,57,8.30
2011,04,28,09,58,8.30
2011,04,28,09,59,8.40
2011,04,28,10,00,8.50
2011,04,28,10,01,8.60
2011,04,28,10,02,8.70
2011,04,28,10,03,8.80
2011,04,28,10,04,8.90
2011,04,28,10,05,9.00
2011,04,28,10,06,9.20
2011,04,28,10,07,9.30
2011,04,28,10,08,9.30
2011,04,28,10,09,9.40
2011,04,28,10,10,9.40
2011,04,28,10,11,9.40
2011,04,28,10,12,9.40
2011,04,28,10,13,9.50
2011,04,28,10,14,9.50
2011,04,28,10,15,9.60
2011,04,28,10,16,9.70
2011,04,28,10,17,9.70
2011,04,28,10,18,9.70
2011,04,28,10,19,9.60
2011,04,28,10,20,9.60
2011,04,28,10,21,9.60
2011,04,28,10,22,9.50
2011,04,28,10,23,9.50
2011,04,28,10,24,9.50
2011,04,28,10,25,9.50
2011,04,28,10,26,9.60
2011,04,28,10,27,9.50
2011,04,28,10,28,9.40
2011,04,28,10,29,9.30
2011,04,28,10,30,9.20
2011,04,28,10,31,9.10
2011,04,28,10,32,9.10
2011,04,28,10,33,9.00
2011,04,28,10,34,9.00
2011,04,28,10,35,8.90
2011,04,28,10,36,8.90
2011,04,28,10,37,8.90
2011,04,28,10,38,8.80
2011,04,28,10,39,8.70
2011,04,28,10,40,8.70
2011,04,28,10,41,8.70
2011,04,28,10,42,8.70
2011,04,28,10,43,8.60
2011,04,28,10,44,8.60
2011,04,28,10,45,8.50
2011,04,28,10,46,8.50
2011,04,28,10,47,8.50
2011,04,28,10,48,8.40
2011,04,28,10,49,8.50
2011,04,28,10,50,8.50
2011,04,28,10,51,8.60
2011,04,28,10,52,8.60
2011,04,28,10,53,8.60
2011,04,28,10,54,8.70
2011,04,28,10,55,8.70
2011,04,28,10,56,8.70
2011,04,28,10,57,8.70
2011,04,28,10,58,8.80
2011,04,28,10,59,8.90
2011,04,28,11,00,9.00
2011,04,28,11,01,9.20
2011,04,28,11,02,9.30
2011,04,28,11,03,9.50
2011,04,28,11,04,9.60
2011,04,28,11,05,9.60
2011,04,28,11,06,9.60
2011,04,28,11,07,9.60
2011,04,28,11,08,9.60
2011,04,28,11,09,9.60
2011,04,28,11,10,9.60
2011,04,28,11,11,9.60
2011,04,28,11,12,9.50
2011,04,28,11,13,9.50
2011,04,28,11,14,9.40
2011,04,28,11,15,9.30
2011,04,28,11,16,9.20
2011,04,28,11,17,9.10
2011,04,28,11,18,9.00
2011,04,28,11,19,8.90
2011,04,28,11,20,8.90
2011,04,28,11,21,8.90
2011,04,28,11,22,8.90
2011,04,28,11,23,9.00
2011,04,28,11,24,9.10
2011,04,28,11,25,9.10
2011,04,28,11,26,9.10
2011,04,28,11,27,9.10
2011,04,28,11,28,9.20
2011,04,28,11,29,9.20
2011,04,28,11,30,9.30
2011,04,28,11,31,9.40
2011,04,28,11,32,9.40
2011,04,28,11,33,9.40
2011,04,28,11,34,9.50
2011,04,28,11,35,9.50
2011,04,28,11,36,9.50
2011,04,28,11,37,9.40
2011,04,28,11,38,9.40
2011,04,28,11,39,9.30
2011,04,28,11,40,9.30
2011,04,28,11,41,9.20
2011,04,28,11,42,9.20
2011,04,28,11,43,9.30
2011,04,28,11,44,9.30
2011,04,28,11,45,9.30
2011,04,28,11,46,9.40
2011,04,28,11,47,9.50
2011,04,28,11,48,9.60
2011,04,28,11,49,9.60
2011,04,28,11,50,9.50
2011,04,28,11,51,9.40
2011,04,28,11,52,9.30
2011,04,28,11,53,9.30
2011,04,28,11,54,9.20
2011,04,28,11,55,9.20
2011,04,28,11,56,9.10
2011,04,28,11,57,9.00
2011,04,28,11,58,9.00
2011,04,28,11,59,9.00
2011,04,28,12,00,9.00
2011,04,28,12,01,9.10
2011,04,28,12,02,9.20
2011,04,28,12,03,9.30
2011,04,28,12,04,9.40
2011,04,28,12,05,9.50
2011,04,28,12,06,9.60
2011,04,28,12,07,9.60
2011,04,28,12,08,9.70
2011,04,28,12,09,9.80
2011,04,28,12,10,9.90
2011,04,28,12,11,10.00
2011,04,28,12,12,10.00
2011,04,28,12,13,9.90
2011,04,28,12,14,9.80
2011,04,28,12,15,9.70
2011,04,28,12,16,9.60
2011,04,28,12,17,9.60
2011,04,28,12,18,9.50
2011,04,28,12,19,9.60
2011,04,28,12,20,9.60
2011,04,28,12,21,9.60
2011,04,28,12,22,9.60
2011,04,28,12,23,9.60
2011,04,28,12,24,9.70
2011,04,28,12,25,9.70
2011,04,28,12,26,9.70
2011,04,28,12,27,9.70
2011,04,28,12,28,9.70
2011,04,28,12,29,9.70
2011,04,28,12,30,9.70
2011,04,28,12,31,9.70
2011,04,28,12,32,9.70
2011,04,28,12,33,9.80
2011,04,28,12,34,9.80
2011,04,28,12,35,9.90
2011,04,28,12,36,9.90
2011,04,28,12,37,9.90
2011,04,28,12,38,9.90
2011,04,28,12,39,9.90
2011,04,28,12,40,9.80
2011,04,28,12,41,9.80
2011,04,28,12,42,9.80
2011,04,28,12,43,9.80
2011,04,28,12,44,9.80
2011,04,28,12,45,9.80
2011,04,28,12,46,9.80
2011,04,28,12,47,9.80
2011,04,28,12,48,9.80
2011,04,28,12,49,9.90
2011,04,28,12,50,9.90
2011,04,28,12,51,10.00
2011,04,28,12,52,10.10
2011,04,28,12,53,10.10
2011,04,28,12,54,10.20
2011,04,28,12,55,10.30
2011,04,28,12,56,10.30
2011,04,28,12,57,10.40
2011,04,28,12,58,10.50
2011,04,28,12,59,10.60
2011,04,28,13,00,10.70
2011,04,28,13,01,10.80
2011,04,28,13,02,10.90
2011,04,28,13,03,11.00
2011,04,28,13,04,11.00
2011,04,28,13,05,11.00
2011,04,28,13,06,11.00
2011,04,28,13,07,11.00
2011,04,28,13,08,11.00
2011,04,28,13,09,11.00
2011,04,28,13,10,11.00
2011,04,28,13,11,11.10
2011,04,28,13,12,11.10
2011,04,28,13,13,11.10
2011,04,28,13,14,11.20
2011,04,28,13,15,11.30
2011,04,28,13,16,11.40
2011,04,28,13,17,11.40
2011,04,28,13,18,11.40
2011,04,28,13,19,11.30
2011,04,28,13,20,11.10
2011,04,28,13,21,11.00
2011,04,28,13,22,10.80
2011,04,28,13,23,10.80
2011,04,28,13,24,10.80
2011,04,28,13,25,10.70
2011,04,28,13,26,10.70
2011,04,28,13,27,10.70
2011,04,28,13,28,10.70
2011,04,28,13,29,10.60
2011,04,28,13,30,10.60
2011,04,28,13,31,10.50
2011,04,28,13,32,10.50
2011,04,28,13,33,10.50
2011,04,28,13,34,10.50
2011,04,28,13,35,10.50
2011,04,28,13,36,10.50
2011,04,28,13,37,10.50
2011,04,28,13,38,10.50
2011,04,28,13,39,10.50
2011,04,28,13,40,10.50
2011,04,28,13,41,10.60
2011,04,28,13,42,10.60
2011,04,28,13,43,10.60
2011,04,28,13,44,10.70
2011,04,28,13,45,10.80
2011,04,28,13,46,10.80
2011,04,28,13,47,10.90
2011,04,28,13,48,10.90
2011,04,28,13,49,11.00
2011,04,28,13,50,11.10
2011,04,28,13,51,11.10
2011,04,28,13,52,11.10
2011,04,28,13,53,11.00
2011,04,28,13,54,10.90
2011,04,28,13,55,10.80
2011,04,28,13,56,10.70
2011,04,28,13,57,10.60
2011,04,28,13,58,10.50
2011,04,28,13,59,10.50
2011,04,28,14,00,10.40
2011,04,28,14,01,10.30
2011,04,28,14,02,10.40
2011,04,28,14,03,10.40
2011,04,28,14,04,10.40
2011,04,28,14,05,10.40
2011,04,28,14,06,10.50
2011,04,28,14,07,10.60
2011,04,28,14,08,10.60
2011,04,28,14,09,10.70
2011,04,28,14,10,10.70
2011,04,28,14,11,10.70
2011,04,28,14,12,10.60
2011,04,28,14,13,10.60
2011,04,28,14,14,10.70
2011,04,28,14,15,10.70
2011,04,28,14,16,10.80
2011,04,28,14,17,10.80
2011,04,28,14,18,10.90
2011,04,28,14,19,10.90
2011,04,28,14,20,10.90
2011,04,28,14,21,10.90
2011,04,28,14,22,10.90
2011,04,28,14,23,10.80
2011,04,28,14,24,10.70
2011,04,28,14,25,10.50
2011,04,28,14,26,10.50
2011,04,28,14,27,10.50
2011,04,28,14,28,10.50
2011,04,28,14,29,10.50
2011,04,28,14,30,10.60
2011,04,28,14,31,10.60
2011,04,28,14,32,10.60
2011,04,28,14,33,10.60
2011,04,28,14,34,10.60
2011,04,28,14,35,10.60
2011,04,28,14,36,10.60
2011,04,28,14,37,10.50
2011,04,28,14,38,10.50
2011,04,28,14,39,10.50
2011,04,28,14,40,10.40
2011,04,28,14,41,10.50
2011,04,28,14,42,10.50
2011,04,28,14,43,10.60
2011,04,28,14,44,10.60
2011,04,28,14,45,10.50
2011,04,28,14,46,10.50
2011,04,28,14,47,10.40
2011,04,28,14,48,10.50
2011,04,28,14,49,10.50
2011,04,28,14,50,10.60
2011,04,28,14,51,10.60
2011,04,28,14,52,10.70
2011,04,28,14,53,10.70
2011,04,28,14,54,10.70
2011,04,28,14,55,10.70
2011,04,28,14,56,10.70
2011,04,28,14,57,10.60
2011,04,28,14,58,10.60
2011,04,28,14,59,10.50
2011,04,28,15,00,10.50
2011,04,28,15,01,10.50
2011,04,28,15,02,10.50
2011,04,28,15,03,10.60
2011,04,28,15,04,10.60
2011,04,28,15,05,10.60
2011,04,28,15,06,10.50
2011,04,28,15,07,10.50
2011,04,28,15,08,10.50
2011,04,28,15,09,10.50
2011,04,28,15,10,10.50
2011,04,28,15,11,10.50
2011,04,28,15,12,10.50
2011,04,28,15,13,10.50
2011,04,28,15,14,10.60
2011,04,28,15,15,10.60
2011,04,28,15,16,10.60
2011,04,28,15,17,10.60
2011,04,28,15,18,10.60
2011,04,28,15,19,10.60
2011,04,28,15,20,10.60
2011,04,28,15,21,10.50
2011,04,28,15,22,10.50
2011,04,28,15,23,10.60
2011,04,28,15,24,10.60
2011,04,28,15,25,10.60
2011,04,28,15,26,10.60
2011,04,28,15,27,10.60
2011,04,28,15,28,10.60
2011,04,28,15,29,10.50
2011,04,28,15,30,10.50
2011,04,28,15,31,10.50
2011,04,28,15,32,10.50
2011,04,28,15,33,10.50
2011,04,28,15,34,10.50
2011,04,28,15,35,10.60
2011,04,28,15,36,10.60
2011,04,28,15,37,10.70
2011,04,28,15,38,10.70
2011,04,28,15,39,10.70
2011,04,28,15,40,10.70
2011,04,28,15,41,10.60
2011,04,28,15,42,10.50
2011,04,28,15,43,10.40
2011,04,28,15,44,10.40
2011,04,28,15,45,10.40
2011,04,28,15,46,10.40
2011,04,28,15,47,10.30
2011,04,28,15,48,10.20
2011,04,28,15,49,10.20
2011,04,28,15,50,10.10
2011,04,28,15,51,10.10
2011,04,28,15,52,10.00
2011,04,28,15,53,10.00
2011,04,28,15,54,10.00
2011,04,28,15,55,10.00
2011,04,28,15,56,10.00
2011,04,28,15,57,10.00
2011,04,28,15,58,10.10
2011,04,28,15,59,10.10
2011,04,28,16,00,10.10
2011,04,28,16,01,10.10
2011,04,28,16,02,10.10
2011,04,28,16,03,10.10
2011,04,28,16,04,10.00
2011,04,28,16,05,10.00
2011,04,28,16,06,9.90
2011,04,28,16,07,9.90
2011,04,28,16,08,9.90
2011,04,28,16,09,9.90
2011,04,28,16,10,9.90
2011,04,28,16,11,9.90
2011,04,28,16,12,9.90
2011,04,28,16,13,9.90
2011,04,28,16,14,9.90
2011,04,28,16,15,9.90
2011,04,28,16,16,9.90
2011,04,28,16,17,9.90
2011,04,28,16,18,10.00
2011,04,28,16,19,10.00
2011,04,28,16,20,10.00
2011,04,28,16,21,10.10
2011,04,28,16,22,10.10
2011,04,28,16,23,10.10
2011,04,28,16,24,10.10
2011,04,28,16,25,10.00
2011,04,28,16,26,10.00
2011,04,28,16,27,9.90
2011,04,28,16,28,10.00
2011,04,28,16,29,10.00
2011,04,28,16,30,10.10
2011,04,28,16,31,10.10
2011,04,28,16,32,10.10
2011,04,28,16,33,10.10
2011,04,28,16,34,10.10
2011,04,28,16,35,10.10
2011,04,28,16,36,10.20
2011,04,28,16,37,10.20
2011,04,28,16,38,10.30
2011,04,28,16,39,10.30
2011,04,28,16,40,10.30
2011,04,28,16,41,10.30
2011,04,28,16,42,10.30
2011,04,28,16,43,10.30
2011,04,28,16,44,10.40
2011,04,28,16,45,10.40
2011,04,28,16,46,10.40
2011,04,28,16,47,10.50
2011,04,28,16,48,10.50
2011,04,28,16,49,10.50
2011,04,28,16,50,10.50
2011,04,28,16,51,10.50
2011,04,28,16,52,10.60
2011,04,28,16,53,10.60
2011,04,28,16,54,10.60
2011,04,28,16,55,10.60
2011,04,28,16,56,10.60
2011,04,28,16,57,10.60
2011,04,28,16,58,10.60
2011,04,28,16,59,10.60
2011,04,28,17,00,10.60
2011,04,28,17,01,10.60
2011,04,28,17,02,10.60
2011,04,28,17,03,10.50
2011,04,28,17,04,10.40
2011,04,28,17,05,10.40
2011,04,28,17,06,10.40
2011,04,28,17,07,10.40
2011,04,28,17,08,10.50
2011,04,28,17,09,10.50
2011,04,28,17,10,10.60
2011,04,28,17,11,10.60
2011,04,28,17,12,10.70
2011,04,28,17,13,10.80
2011,04,28,17,14,10.80
2011,04,28,17,15,10.80
2011,04,28,17,16,10.80
2011,04,28,17,17,10.80
2011,04,28,17,18,10.80
2011,04,28,17,19,10.80
2011,04,28,17,20,10.80
2011,04,28,17,21,10.80
2011,04,28,17,22,10.80
2011,04,28,17,23,10.80
2011,04,28,17,24,10.70
2011,04,28,17,25,10.70
2011,04,28,17,26,10.80
2011,04,28,17,27,10.80
2011,04,28,17,28,10.80
2011,04,28,17,29,10.80
2011,04,28,17,30,10.80
2011,04,28,17,31,10.80
2011,04,28,17,32,10.80
2011,04,28,17,33,10.80
2011,04,28,17,34,10.80
2011,04,28,17,35,10.80
2011,04,28,17,36,10.70
2011,04,28,17,37,10.70
2011,04,28,17,38,10.70
2011,04,28,17,39,10.70
2011,04,28,17,40,10.70
2011,04,28,17,41,10.70
2011,04,28,17,42,10.60
2011,04,28,17,43,10.60
2011,04,28,17,44,10.60
2011,04,28,17,45,10.60
2011,04,28,17,46,10.70
2011,04,28,17,47,10.70
2011,04,28,17,48,10.80
2011,04,28,17,49,10.90
2011,04,28,17,50,11.00
2011,04,28,17,51,11.00
2011,04,28,17,52,11.10
2011,04,28,17,53,11.10
2011,04,28,17,54,11.00
2011,04,28,17,55,10.90
2011,04,28,17,56,10.90